THORAD DELTA 1 DEB, 42606

Orbit data source: Space-Track

THORAD DELTA 1 DEB, 42606 is space debris in SSO originally from a launch on Fri, 15 Nov 1974 UTC launched from the Air Force Western Test Range (AFWTR). Debris objects in space refer to the collection of defunct objects orbiting the Earth. Examples of debris include non-operational satellites, rocket bodies, and fragments generated from explosions, collisions, or faulty payload assembly.

Loading next visibility...
Identifier
42606, 1974-089FX
Orbit
SSO
Country
Flag of USUS
Related business
Manufacturer
Unknown
Mission
Spacecraft
Bus & Motor
Unknown
Mass
Unknown
Launch date (UTC)
1974-11-15 (52 years ago)
Launch vehicle
Unknown
Launch site
Air Force Western Test Range (AFWTR)
Object type
Payload
Rocket body
Debris
Shape & HBR
Unknown shape, 0.1 m
Radar Cross Section
Small (<0.1 m²)

Expand to show TLE details & history
Last TLE update: 3 days ago

TLE from 3 days ago
0 THORAD DELTA 1 DEB
1 42606U 74089FX  26143.00537749  .00000109  00000-0  72188-3 0  9996
2 42606 102.1399  62.7855 0185321 350.5041  20.2682 12.72508126569257
Epoch: 2026-05-23T00:07Z
TLE epoch observation values (Epoch: 2026-05-23T00:07:44.615Z)
Latitude
11.22135°
Longitude
177.78799°
Altitude
1,239.156 km
Speed
7.299 km/s
True Right ascension
04h 01m 24s
True Declination
11° 09' 36"
Sunlit
Object was in daylight at epoch
Visualization orbit readout
Latitude
Unknown
Longitude
Unknown
Altitude
Unknown
Speed
Unknown
Apparent Right ascension
Unknown
Apparent Declination
Unknown
Sunlit
N/A
Visualization observer readout
Local Sidereal Time
05:23:29
Azimuth
Unknown
Elevation
Unknown
Doppler factor
Unknown
Orbital elements
Apogee altitude
1,512.855 km
Perigee altitude
1,225.704 km
Semi-major axis
7,747.416 km
Eccentricity
0.01853
Inclination
102.1399°
RAAN
62.7855°
Arg. of periapsis
350.5041°
True anomaly
21.02016°
Mean anomaly
20.2682°
Eccentric anomaly
20.64253°
Mean motion
3.18279 °/min
Orbital period
113.11 mins
BSTAR
0.00072188
Loading maneuver chart data...
Computing Atmospheric mass density...

Documentation

Showing up to 5 results
|